JQ1YUX-13 Tokyo Ota-ku JP current weather conditions

sailwx.info

Air temperature 20.0° C
Dewpoint 19.3° C

Last reported at 2017-May-26 05:00 UTC.
Time now 2017-May-26 05:43 UTC

Location: N 35°35' E 139°40'.
View on Google Maps.

See reports from other nearby stations

  
Tides and Currents Weather Stations Pressure Air Temp Water Temp Dewpoint Dewpoint Depression Visibility Wind Speed Wind Dir Waves Ship Positions
date/time (UTC)wind fromknots sea level pressurealtimeterstation pressurevisibilityair tempwater tempwave heightnotes
2017-May-26 05:00 20.0
2017-May-26 04:29 005 19.4
2017-May-26 03:59 19.4
2017-May-26 03:29 311 18.9
2017-May-26 02:59 257 18.9
2017-May-26 02:29 026 18.3
2017-May-26 01:59 271 18.3
2017-May-26 01:29 283 18.3
2017-May-26 00:59 311 18.3
2017-May-26 00:29 320 18.3
2017-May-25 23:59 013 18.3
2017-May-25 23:29 17.8
2017-May-25 22:59 17.8
2017-May-25 22:29 17.8
2017-May-25 21:59 086 17.8
2017-May-25 21:29 030 17.8
2017-May-25 20:59 031 17.8
2017-May-25 20:29 037 18.3
2017-May-25 19:59 037 18.3
2017-May-25 19:29 037 18.9
2017-May-25 18:59 338 18.9
2017-May-25 18:29 355 19.4
2017-May-25 17:59 325 19.4
2017-May-25 17:29 325 19.4
2017-May-25 16:59 325 19.4
2017-May-25 16:29 325 19.4
2017-May-25 15:59 325 19.4
2017-May-25 15:29 325 19.4
2017-May-25 14:59 325 19.4
2017-May-25 14:29 323 20.0
2017-May-25 13:59 323 20.6
2017-May-25 13:29 323 20.6
2017-May-25 12:59 323 21.1
2017-May-25 12:29 175 21.1
2017-May-25 11:59 355 21.7
2017-May-25 11:29 355 21.7
2017-May-25 10:59 355 21.7
2017-May-25 10:29 355 21.7
2017-May-25 09:59 355 21.7
2017-May-25 09:29 355 22.2
2017-May-25 08:59 22.2
2017-May-25 08:29 032 22.8
2017-May-25 07:59 025 22.8
2017-May-25 07:29 017 1 gusting 0 22.8
2017-May-25 06:59 035 6 gusting 6 22.2
2017-May-25 06:29 344 0 gusting 8 22.2
2017-May-25 05:59 340 6 gusting 9 22.2
2017-May-25 05:29 342 2 gusting 6 23.3
2017-May-25 04:59 355 0 gusting 4 23.9
2017-May-25 04:29 022 5 gusting 8 24.4
2017-May-25 03:59 327 23.9
2017-May-25 03:29 310 23.9
2017-May-25 02:59 285 23.3
2017-May-25 02:29 304 22.8
2017-May-25 01:59 292 22.8
2017-May-25 01:29 278 22.2
2017-May-25 00:59 336 22.2
2017-May-25 00:29 336 21.7
2017-May-24 23:59 337 21.7
2017-May-24 23:29 338 21.1
2017-May-24 22:59 321 20.6
2017-May-24 22:29 317 20.6
2017-May-24 21:59 213 20.0
2017-May-24 21:29 213 20.0
2017-May-24 20:59 211 20.0
2017-May-24 20:29 213 20.0
2017-May-24 19:59 213 20.0
2017-May-24 19:29 213 20.0
2017-May-24 18:59 213 20.6
2017-May-24 18:29 213 20.6
2017-May-24 17:59 213 20.6
2017-May-24 17:29 213 20.6
2017-May-24 16:59 180 21.1
2017-May-24 16:29 180 21.1
2017-May-24 15:59 180 21.1
2017-May-24 15:29 181 21.1
2017-May-24 14:59 180 21.1
2017-May-24 14:29 182 21.1
2017-May-24 13:59 173 0 gusting 5 21.7
2017-May-24 13:29 168 0 gusting 6 21.7
2017-May-24 12:59 164 21.7
2017-May-24 12:29 169 21.7
2017-May-24 11:59 194 21.7
2017-May-24 11:29 208 21.7
2017-May-24 10:59 200 21.7
2017-May-24 10:29 176 21.7
2017-May-24 09:59 188 0 gusting 0 22.2
2017-May-24 09:29 178 0 gusting 5 22.2
2017-May-24 08:59 215 22.8
2017-May-24 08:29 161 22.8
2017-May-24 07:59 175 1 gusting 5 22.8
2017-May-24 07:29 149 2 gusting 5 22.8
2017-May-24 06:59 173 1 gusting 7 22.8
2017-May-24 06:29 174 3 gusting 5 23.3
2017-May-24 05:59 174 0 gusting 2 23.9
2017-May-24 05:29 173 2 gusting 6 24.4